TIANLIAN-2 03

导读 | 星芒AI

TIANLIAN-2 03 是中国天链中继卫星系统的第二代卫星之一,主要用于为航天器提供数据中继和测控支持。该卫星由中国航天科技集团研制,具备更高的传输速率和更强的覆盖能力,可有效提升中国空间站、载人飞船及其他航天器的通信效率与稳定性。2023年成功发射入轨后,TIANLIAN-2 03 进一步完善了中国中继卫星网络,增强了对近地轨道和中高轨道航天器的实时测控能力,为中国航天任务的顺利实施提供了重要保障。

基本信息
目录编号:
53100
目录名称:
TIANLIAN-2 03
国际标识:
2022-078A
轨道中心:
EARTH
卫星名称:
TIANLIAN-2 03
卫星全名:
--
卫星状态:
在轨 (已飞行1252 天)
发射日期:
2022-07-12 UTC
国别 :
中国 (CN)
星等 :
--
轨道信息
数据来源 国际轨道数据 AOE轨道数据
星历时间 2025-12-15T06:01:49+0800
20小时前
查看轨道信息
2025-12-15T11:00:00+0800
15小时前
查看轨道信息
半长轴 42164.56km 42164.644km
偏心率 0.0003517 0.0003639
轨道倾角 0.212° 0.212°
近地点辐角 215.062° 213.478°
升交点赤经 60.790° 60.921°
平近点角 149.022° 225.220°
近地点 35771.595km 35771.165km
远地点 35801.255km 35801.853km
周期 1436.088分钟 1436.092分钟
每日圈数 1.002724 1.002721
详细信息
使用方式:
暂无
2D轨道图
3D轨道图
轨道高度分析图
轨道倾角分析图
轨道综合分析图
查看轨道综合分析图